GW0672 Weather Reports


Display with metric or nautical units.
time (UTC)temp
F
wind
direction
speed
MPH
gust
MPH
rain 1hr
in
rain 24hr
in
rain mn
in
humidity
%
barometer
mb
20260506153519 49 315 2.0 3.0 0.00 0.00 0.00 60 1015.1
20260506153017 48 332 1.0 2.0 0.00 0.00 0.00 62 1014.8
20260506152514 49 314 3.0 5.0 0.00 0.00 0.00 61 1014.8
20260506152012 49 358 3.0 3.0 0.00 0.00 0.00 61 1014.9
20260506151509 49 348 4.0 5.0 0.00 0.00 0.00 64 1015.0
20260506151006 48 348 3.0 5.0 0.00 0.00 0.00 64 1014.8
20260506150502 46 346 3.0 5.0 0.00 0.00 0.00 64 1015.0
20260506145959 47 324 0.0 2.0 0.00 0.00 0.00 62 1014.8
20260506145456 48 19 7.0 9.0 0.00 0.00 0.00 62 1014.8
20260506144954 47 292 4.0 5.0 0.00 0.00 0.00 61 1014.9
20260506144450 47 282 5.0 6.0 0.00 0.00 0.00 60 1014.7
20260506143948 48 295 6.0 7.0 0.00 0.00 0.00 63 1014.7
20260506143445 47 79 3.0 5.0 0.00 0.00 0.00 60 1014.7
20260506142944 47 57 3.0 5.0 0.00 0.00 0.00 61 1014.6
20260506142441 46 320 2.0 2.0 0.00 0.00 0.00 60 1014.7
20260506141939 46 13 3.0 5.0 0.00 0.00 0.00 62 1014.5
20260506141436 47 87 6.0 10.0 0.00 0.00 0.00 61 1014.2
20260506140935 46 44 1.0 3.0 0.00 0.00 0.00 61 1014.3
20260506140431 46 113 7.0 7.0 0.00 0.00 0.00 61 1014.3
20260506135928 46 112 3.0 5.0 0.00 0.00 0.00 61 1014.3
20260506135426 45 41 2.0 2.0 0.00 0.00 0.00 63 1014.2
20260506134922 45 353 0.0 2.0 0.00 0.00 0.00 64 1014.3
20260506134418 45 93 4.0 6.0 0.00 0.00 0.00 65 1014.4
20260506133915 45 22 2.0 3.0 0.00 0.00 0.00 66 1014.4
20260506133411 44 72 3.0 3.0 0.00 0.00 0.00 66 1014.4
20260506132908 43 41 0.0 2.0 0.00 0.00 0.00 68 1014.3
20260506132405 43 292 3.0 5.0 0.00 0.00 0.00 69 1014.1
20260506131904 43 69 4.0 6.0 0.00 0.00 0.00 69 1014.1
20260506131359 43 122 6.0 7.0 0.00 0.00 0.00 70 1014.1
20260506130856 42 97 4.0 5.0 0.00 0.00 0.00 70 1014.4
20260506130352 41 325 2.0 3.0 0.00 0.00 0.00 72 1014.1
20260506125850 42 290 6.0 7.0 0.00 0.00 0.00 72 1014.0
20260506125349 42 330 3.0 3.0 0.00 0.00 0.00 71 1013.8
20260506124846 41 85 2.0 5.0 0.00 0.00 0.00 72 1014.0
20260506124344 41 72 3.0 3.0 0.00 0.00 0.00 72 1013.9
20260506123841 41 294 3.0 5.0 0.00 0.00 0.00 72 1013.9
20260506123340 41 284 2.0 2.0 0.00 0.00 0.00 72 1013.7
20260506122837 40 288 3.0 7.0 0.00 0.00 0.00 73 1013.8
20260506122333 41 321 2.0 3.0 0.00 0.00 0.00 73 1013.7
20260506121832 41 306 3.0 5.0 0.00 0.00 0.00 72 1013.7
20260506121328 41 48 0.0 2.0 0.00 0.00 0.00 75 1013.5
20260506120825 40 338 2.0 3.0 0.00 0.00 0.00 77 1013.6
20260506120323 40 332 3.0 3.0 0.00 0.00 0.00 78 1013.4
20260506115820 40 5 3.0 5.0 0.00 0.00 0.00 79 1013.3
20260506115319 40 307 2.0 3.0 0.00 0.00 0.00 80 1013.2
20260506114816 40 335 4.0 5.0 0.00 0.00 0.00 80 1013.4
20260506114314 40 309 3.0 3.0 0.00 0.00 0.00 81 1013.2
20260506113812 40 27 4.0 5.0 0.00 0.00 0.00 81 1012.7
20260506113309 41 336 3.0 3.0 0.00 0.00 0.00 80 1012.8
20260506112806 41 298 2.0 2.0 0.00 0.00 0.00 80 1012.9
20260506112305 40 339 2.0 3.0 0.00 0.00 0.00 82 1012.8
20260506111800 39 327 0.0 2.0 0.00 0.00 0.00 83 1012.8
20260506111258 39 326 1.0 2.0 0.00 0.00 0.00 85 1012.5
20260506110755 39 326 0.0 0.0 0.00 0.00 0.00 86 1012.7
20260506110253 39 297 0.0 0.0 0.00 0.00 0.00 89 1012.2
20260506105749 39 314 0.0 0.0 0.00 0.00 0.00 89 1012.2
20260506105246 38 304 0.0 0.0 0.00 0.00 0.00 89 1012.1
20260506104744 38 304 0.0 0.0 0.00 0.00 0.00 89 1011.8
20260506104241 38 299 0.0 0.0 0.00 0.00 0.00 88 1012.3
20260506103738 38 295 0.0 0.0 0.00 0.00 0.00 88 1012.4
20260506103236 38 296 0.0 0.0 0.00 0.00 0.00 88 1011.9
20260506102733 38 296 0.0 0.0 0.00 0.00 0.00 87 1011.8
20260506102231 39 296 0.0 0.0 0.00 0.00 0.00 86 1011.8
20260506101728 39 296 0.0 0.0 0.00 0.00 0.00 86 1011.7
20260506101224 40 296 0.0 0.0 0.00 0.00 0.00 85 1011.7
20260506100722 40 297 0.0 0.0 0.00 0.00 0.00 85 1011.7
20260506100220 41 304 0.0 0.0 0.00 0.00 0.00 85 1011.7
20260506095718 41 300 0.0 0.0 0.00 0.00 0.00 85 1011.4
20260506095215 41 315 0.0 0.0 0.00 0.00 0.00 86 1011.5
20260506094712 42 306 0.0 0.0 0.00 0.00 0.00 87 1011.0
20260506094210 42 34 0.0 0.0 0.00 0.00 0.00 88 1011.0
20260506093709 42 315 0.0 0.0 0.00 0.00 0.00 89 1010.8
20260506093205 43 297 2.0 2.0 0.00 0.00 0.00 89 1011.1
20260506092703 43 348 0.0 0.0 0.00 0.00 0.00 89 1011.0
20260506092200 43 312 0.0 2.0 0.00 0.00 0.00 89 1010.9
20260506091658 43 327 1.0 3.0 0.00 0.00 0.00 89 1011.1
20260506091155 43 301 0.0 0.0 0.00 0.00 0.00 88 1010.7
20260506090653 43 297 0.0 0.0 0.00 0.00 0.00 88 1010.7
20260506090149 43 296 3.0 3.0 0.00 0.00 0.00 88 1011.1
20260506085646 43 298 1.0 2.0 0.00 0.00 0.00 87 1011.2
20260506085142 43 321 1.0 2.0 0.00 0.00 0.00 87 1010.8
20260506084639 43 291 0.0 0.0 0.00 0.00 0.00 87 1010.9
20260506084136 43 302 0.0 0.0 0.00 0.00 0.00 86 1010.9
20260506083633 43 298 0.0 0.0 0.00 0.00 0.00 86 1010.8
20260506083130 43 295 0.0 0.0 0.00 0.00 0.00 85 1011.1
20260506082627 43 295 0.0 0.0 0.00 0.00 0.00 85 1010.9
20260506082122 43 296 0.0 2.0 0.00 0.00 0.00 85 1011.1
20260506081621 43 298 0.0 0.0 0.00 0.00 0.00 85 1011.0
20260506081118 43 295 0.0 0.0 0.00 0.00 0.00 84 1011.1
20260506080616 43 295 0.0 0.0 0.00 0.00 0.00 83 1011.0
20260506080112 43 295 0.0 0.0 0.00 0.00 0.00 81 1011.0
20260506073056 45 296 0.0 0.0 0.00 0.00 0.00 74 1010.8
20260506072553 45 295 1.0 2.0 0.00 0.00 0.00 73 1010.9
20260506072051 46 298 0.0 0.0 0.00 0.00 0.00 73 1010.7
20260506071548 46 294 2.0 3.0 0.00 0.00 0.00 72 1010.8
20260506071046 46 292 2.0 3.0 0.00 0.00 0.00 71 1010.9
20260506070542 46 294 1.0 2.0 0.00 0.00 0.00 71 1010.8
20260506062017 47 289 3.0 5.0 0.00 0.00 0.00 64 1011.0
20260506061512 47 294 3.0 3.0 0.00 0.00 0.00 63 1010.9
20260506061010 47 290 3.0 3.0 0.00 0.00 0.00 62 1010.7
20260506060509 47 300 2.0 3.0 0.00 0.00 0.00 61 1010.9
20260506050937 48 289 3.0 3.0 0.00 0.00 0.00 60 1010.3
20260506050435 48 293 5.0 6.0 0.00 0.00 0.00 59 1010.9
20260506044925 48 286 1.0 2.0 0.00 0.00 0.00 60 1010.7
20260506044424 48 288 2.0 3.0 0.00 0.00 0.00 60 1010.7
20260506043920 48 294 2.0 3.0 0.00 0.00 0.00 59 1010.5
20260506043418 48 293 1.0 2.0 0.00 0.00 0.00 59 1010.3
20260506042915 48 274 3.0 5.0 0.00 0.00 0.00 59 1010.4
20260506042415 48 287 2.0 3.0 0.00 0.00 0.00 59 1010.5
20260506041912 48 296 3.0 3.0 0.00 0.00 0.00 59 1010.4
20260506041410 48 296 1.0 2.0 0.00 0.00 0.00 59 1010.5
20260506040906 48 294 2.0 3.0 0.00 0.00 0.00 59 1010.6
20260506040404 48 296 1.0 2.0 0.00 0.00 0.00 59 1010.6
20260506035900 48 289 2.0 2.0 0.00 0.05 0.05 58 1010.7
20260506035358 48 297 2.0 3.0 0.00 0.05 0.05 59 1010.6
20260506034854 48 287 1.0 2.0 0.00 0.05 0.05 58 1010.6
20260506034352 48 289 2.0 3.0 0.00 0.05 0.05 58 1010.6
20260506033848 48 284 0.0 2.0 0.00 0.05 0.05 58 1010.7
20260506033345 48 293 0.0 2.0 0.00 0.05 0.05 59 1010.2
20260506032843 48 294 3.0 5.0 0.00 0.05 0.05 58 1010.5
20260506032339 48 297 1.0 2.0 0.00 0.05 0.05 58 1010.6
20260506031836 48 292 1.0 2.0 0.00 0.05 0.05 58 1010.6
20260506031333 48 291 0.0 0.0 0.00 0.05 0.05 59 1010.7
20260506030831 48 293 1.0 2.0 0.00 0.05 0.05 57 1010.6
20260506030329 48 284 0.0 2.0 0.00 0.05 0.05 58 1010.7
20260506025825 48 285 0.0 2.0 0.00 0.05 0.05 57 1010.4
20260506025321 48 283 0.0 0.0 0.00 0.05 0.05 58 1010.3
20260506024819 48 282 2.0 2.0 0.00 0.05 0.05 57 1010.3
20260506024316 48 282 0.0 2.0 0.00 0.05 0.05 58 1010.5
20260506023812 48 282 0.0 0.0 0.00 0.05 0.05 59 1010.5
20260506023309 48 282 0.0 0.0 0.00 0.05 0.05 59 1010.4
20260506022805 48 282 0.0 0.0 0.00 0.05 0.05 59 1010.4
20260506022305 48 282 0.0 0.0 0.00 0.05 0.05 58 1010.3
20260506021801 48 281 0.0 0.0 0.00 0.05 0.05 57 1010.6
20260506021258 49 280 2.0 3.0 0.00 0.05 0.05 57 1010.2
20260506020754 49 288 0.0 0.0 0.00 0.05 0.05 57 1010.5
20260506020253 49 286 0.0 0.0 0.00 0.05 0.05 56 1010.4
20260506015750 49 288 2.0 3.0 0.00 0.05 0.05 55 1010.3
20260506015247 49 286 0.0 0.0 0.00 0.05 0.05 56 1010.1
20260506014744 50 283 0.0 0.0 0.00 0.05 0.05 54 1010.0
20260506014241 50 293 0.0 0.0 0.00 0.05 0.05 54 1010.1
20260506013738 50 286 0.0 2.0 0.00 0.05 0.05 53 1009.8
20260506013235 50 284 1.0 2.0 0.00 0.05 0.05 53 1009.8
20260506012731 50 288 2.0 3.0 0.00 0.05 0.05 52 1009.9
20260506012228 50 281 2.0 3.0 0.00 0.05 0.05 52 1009.7
20260506011726 51 291 0.0 0.0 0.00 0.05 0.05 51 1009.5
20260506011221 51 289 0.0 0.0 0.00 0.05 0.05 53 1009.9
20260506010720 51 282 2.0 3.0 0.00 0.05 0.05 51 1009.7
20260506010217 51 282 1.0 2.0 0.00 0.05 0.05 51 1009.7
20260506005714 51 294 0.0 0.0 0.00 0.05 0.05 51 1009.8
20260506005211 51 287 0.0 0.0 0.00 0.05 0.05 50 1009.6
20260506004707 51 280 1.0 2.0 0.00 0.05 0.05 51 1009.8
20260506004205 51 292 2.0 3.0 0.00 0.05 0.05 50 1009.9
20260506003700 51 284 2.0 3.0 0.00 0.05 0.05 50 1009.9
20260506003157 51 295 1.0 2.0 0.00 0.05 0.05 49 1009.8
20260506002653 52 271 3.0 5.0 0.00 0.05 0.05 48 1009.6
20260506002149 52 286 2.0 3.0 0.00 0.05 0.05 49 1009.9
20260506001645 52 261 2.0 3.0 0.00 0.05 0.05 49 1009.8
20260506001143 52 288 4.0 6.0 0.00 0.05 0.05 47 1009.8
20260506000640 52 295 6.0 7.0 0.00 0.05 0.05 47 1009.7
20260506000137 52 288 4.0 6.0 0.00 0.05 0.05 46 1009.4
20260505235635 52 319 5.0 7.0 0.00 0.05 0.05 46 1009.5
20260505235132 53 329 5.0 6.0 0.00 0.05 0.05 46 1009.5
20260505234629 53 297 1.0 2.0 0.00 0.05 0.05 46 1009.5
20260505234125 53 273 3.0 5.0 0.00 0.05 0.05 45 1009.5
20260505233623 53 303 3.0 3.0 0.00 0.05 0.05 45 1009.0
20260505233120 53 291 3.0 3.0 0.00 0.05 0.05 44 1009.1
20260505232618 53 257 5.0 6.0 0.00 0.05 0.05 43 1009.1
20260505232115 53 292 1.0 2.0 0.00 0.05 0.05 47 1009.1
20260505231612 54 300 4.0 5.0 0.00 0.05 0.05 44 1008.9
20260505231110 54 298 2.0 3.0 0.00 0.05 0.05 43 1009.1
20260505230608 54 282 2.0 3.0 0.00 0.05 0.05 43 1008.9
20260505230104 54 266 3.0 5.0 0.00 0.05 0.05 44 1008.9
20260505225601 54 297 6.0 7.0 0.00 0.05 0.05 43 1009.1
20260505225056 54 293 4.0 6.0 0.00 0.05 0.05 44 1008.9
20260505224554 54 276 9.0 10.0 0.00 0.05 0.05 42 1009.1
20260505224051 54 295 3.0 5.0 0.00 0.05 0.05 44 1009.2
20260505223548 55 264 3.0 3.0 0.00 0.05 0.05 43 1009.1
20260505223044 55 248 5.0 6.0 0.00 0.05 0.05 42 1009.2
20260505222541 55 283 4.0 5.0 0.00 0.05 0.05 44 1009.3
20260505222037 55 316 4.0 5.0 0.00 0.05 0.05 44 1009.3
20260505221534 55 296 1.0 2.0 0.00 0.05 0.05 46 1009.1
20260505221030 55 286 7.0 9.0 0.00 0.05 0.05 43 1009.1
20260505220528 55 282 7.0 7.0 0.00 0.05 0.05 45 1009.0
20260505220026 55 273 4.0 6.0 0.00 0.05 0.05 47 1008.9
20260505215524 56 294 5.0 6.0 0.00 0.05 0.05 45 1009.1
20260505215021 55 304 4.0 5.0 0.00 0.05 0.05 45 1009.3
20260505214519 56 305 5.0 7.0 0.00 0.05 0.05 45 1009.2
20260505214016 56 267 6.0 7.0 0.00 0.05 0.05 46 1009.2
20260505213514 56 281 3.0 5.0 0.00 0.05 0.05 48 1009.1
20260505213009 56 302 7.0 7.0 0.00 0.05 0.05 46 1009.3
20260505212506 56 280 4.0 5.0 0.00 0.05 0.05 49 1009.0
20260505212003 56 301 6.0 7.0 0.00 0.05 0.05 49 1009.1
20260505211501 56 314 6.0 7.0 0.00 0.05 0.05 48 1009.1
20260505210957 56 299 4.0 5.0 0.00 0.05 0.05 50 1009.1
20260505210454 56 260 4.0 5.0 0.00 0.05 0.05 51 1009.1
20260505205950 56 302 5.0 6.0 0.00 0.05 0.05 51 1009.1
20260505205449 56 293 7.0 9.0 0.00 0.05 0.05 51 1009.0
20260505204945 56 302 3.0 3.0 0.00 0.05 0.05 53 1009.2
20260505204444 56 338 3.0 3.0 0.00 0.05 0.05 53 1009.3
20260505203940 56 283 4.0 5.0 0.00 0.05 0.05 54 1008.9
20260505203437 56 252 8.0 10.0 0.00 0.05 0.05 55 1009.1
20260505202933 56 289 4.0 5.0 0.00 0.05 0.05 54 1009.0
20260505202429 56 293 7.0 10.0 0.00 0.05 0.05 54 1009.1
20260505201926 56 310 3.0 3.0 0.00 0.05 0.05 57 1009.1
20260505201423 56 305 3.0 5.0 0.00 0.05 0.05 58 1008.9
20260505200921 56 326 1.0 2.0 0.00 0.05 0.05 59 1009.3
20260505200418 56 286 4.0 5.0 0.00 0.05 0.05 59 1008.9
20260505195914 56 292 2.0 3.0 0.00 0.05 0.05 59 1009.0
20260505195411 56 293 0.0 0.0 0.00 0.05 0.05 60 1009.2
20260505194908 55 258 3.0 3.0 0.00 0.05 0.05 58 1009.2
20260505194406 55 294 4.0 6.0 0.00 0.05 0.05 65 1009.3
20260505193905 56 283 2.0 2.0 0.00 0.05 0.05 65 1009.3
20260505193403 55 257 7.0 9.0 0.00 0.05 0.05 64 1009.3
20260505192900 55 295 3.0 5.0 0.00 0.05 0.05 63 1009.2
20260505192359 55 293 5.0 6.0 0.00 0.05 0.05 63 1009.3
20260505191856 55 279 5.0 7.0 0.00 0.05 0.05 64 1009.2
20260505191354 55 263 3.0 5.0 0.00 0.05 0.05 64 1009.3
20260505190851 55 276 3.0 5.0 0.00 0.05 0.05 66 1009.1
20260505190346 55 264 5.0 5.0 0.00 0.05 0.05 68 1009.2
20260505185842 55 284 2.0 3.0 0.00 0.05 0.05 68 1009.2
20260505185339 54 287 4.0 6.0 0.00 0.05 0.05 68 1008.9
20260505184835 55 263 4.0 5.0 0.00 0.05 0.05 67 1009.2
20260505184332 54 288 4.0 5.0 0.00 0.05 0.05 67 1009.1
20260505183829 54 290 4.0 6.0 0.00 0.05 0.05 67 1009.2
20260505183326 55 280 5.0 6.0 0.00 0.05 0.05 67 1009.2
20260505182823 55 289 4.0 5.0 0.00 0.05 0.05 66 1009.0
20260505182319 55 258 3.0 6.0 0.00 0.05 0.05 69 1008.9
20260505181816 55 272 5.0 7.0 0.00 0.05 0.05 69 1008.8
20260505181314 54 237 4.0 6.0 0.00 0.05 0.05 70 1008.6
20260505180810 54 275 5.0 6.0 0.00 0.05 0.05 72 1008.7
20260505180306 54 298 3.0 5.0 0.00 0.05 0.05 74 1008.6
20260505175803 54 292 2.0 3.0 0.00 0.05 0.05 73 1008.6
20260505175259 54 309 1.0 2.0 0.00 0.05 0.05 74 1008.6
20260505174756 53 284 7.0 7.0 0.00 0.05 0.05 74 1008.7
20260505174253 53 293 5.0 6.0 0.00 0.05 0.05 73 1008.6
20260505173749 54 183 4.0 6.0 0.00 0.05 0.05 73 1008.7
20260505173246 54 294 2.0 3.0 0.00 0.05 0.05 75 1008.5
20260505172743 54 255 5.0 6.0 0.00 0.05 0.05 75 1008.6
20260505172240 55 311 5.0 7.0 0.00 0.05 0.05 75 1009.0
20260505171740 54 259 3.0 5.0 0.00 0.05 0.05 75 1008.7
20260505171237 53 298 6.0 10.0 0.00 0.05 0.05 77 1008.5
20260505170734 53 250 3.0 5.0 0.00 0.05 0.05 79 1008.5
20260505170231 52 307 0.0 0.0 0.00 0.05 0.05 80 1008.5
20260505165726 52 268 3.0 5.0 0.00 0.05 0.05 79 1008.4
20260505165222 52 274 3.0 5.0 0.00 0.05 0.05 79 1008.3
20260505164718 52 300 3.0 3.0 0.00 0.05 0.05 79 1008.5
20260505164215 51 284 3.0 3.0 0.00 0.05 0.05 80 1008.7
20260505163713 51 241 5.0 7.0 0.00 0.05 0.05 80 1008.6
20260505163211 51 242 3.0 3.0 0.00 0.05 0.05 81 1008.7
20260505162709 51 267 3.0 5.0 0.00 0.05 0.05 81 1008.7
20260505162206 50 263 2.0 2.0 0.00 0.05 0.05 81 1008.9
20260505161702 51 327 2.0 5.0 0.00 0.05 0.05 81 1009.0
20260505161200 51 278 3.0 3.0 0.00 0.05 0.05 82 1008.7
20260505160658 50 241 3.0 5.0 0.00 0.05 0.05 82 1008.8
20260505160155 50 258 4.0 5.0 0.00 0.05 0.05 81 1008.9